Location: Lac Echo
(45.9375°N, 75.4580°W)
Time: 03:30:23
(UTC-04:00)

Amateur Radio Satellites - All Passes

Search period start: 01 September 2014 03:00
Search period end: 02 September 2014 03:00
Location: Lac Echo, 45.9375°N, 75.4580°W

Satellite Date Start Highest point End Downlink Frequencies (MHz)
Time Altitude Azimuth
PCSat 01 Sep 03:06:46 03:11:23 29° 250° (WSW) 03:15:58 145.825 MHz
KITSAT 1 01 Sep 03:06:53 03:12:52 22° 340° (NNW) 03:18:51 435.175 FM
Oscar 19 01 Sep 03:08:58 03:14:09 67° 288° (WNW) 03:19:17 437.125 CW, 437.150 USB
Gurwin Techsat 1B 01 Sep 03:09:45 03:14:21 29° 94° (E) 03:18:54 435.225 FM
JAS-1B 01 Sep 03:11:06 03:17:48 54° 99° (E) 03:23:34 435.800 - 435.900 CW/SSB
OPAL 01 Sep 03:14:58 03:18:48 22° 58° (ENE) 03:22:42 ?
AO-Echo 01 Sep 03:26:18 03:31:02 87° 285° (WNW) 03:35:45 ?
ITAMSAT 1 01 Sep 03:44:14 03:49:24 72° 287° (WNW) 03:54:34 435.822 SSB
Oscar 16 01 Sep 03:44:30 03:49:08 33° 295° (WNW) 03:53:44 437.025 USB, Beacon 2401.1428
Uribyol 2 01 Sep 03:53:56 03:59:01 56° 290° (WNW) 04:04:06 436.500 FM
TMSAT-1 01 Sep 04:00:03 04:05:18 59° 101° (E) 04:10:31 436.925 FM
Oscar 10/S400 01 Sep 04:12:00 05:18:17 26° 240° (WSW) 08:25:39 145.825 - 145.975 CW/USB, Beacon 145.810 USB
AO-27 01 Sep 04:13:55 04:18:44 40° 293° (WNW) 04:23:32 436.795 MHz FM
Uosat F 01 Sep 04:18:55 04:22:12 17° 91° (E) 04:25:28 435.120 FM
SO-50 01 Sep 04:38:15 04:42:40 57° 311° (NW) 04:47:14 436.795 FM
AO-7 01 Sep 04:38:27 04:45:51 35° 96° (E) 04:53:11 29.400 - 29.500 MHz
Gurwin Techsat 1B 01 Sep 04:49:28 04:54:26 42° 292° (WNW) 04:59:24 435.225 FM
Oscar 19 01 Sep 04:51:09 04:52:31 11° 307° (NW) 04:53:53 437.125 CW, 437.150 USB
UOSAT-12 01 Sep 04:51:12 04:54:43 22° 112° (ESE) 04:58:17 437.025 FM, 437.400 FM
OPAL 01 Sep 04:52:17 04:57:16 59° 257° (WSW) 05:02:23 ?
JAS-1B 01 Sep 05:02:16 05:08:01 29° 303° (WNW) 05:13:06 435.800 - 435.900 CW/SSB
STRAND 1 01 Sep 05:04:17 05:05:11 10° 53° (NE) 05:06:05 ?
KITSAT 1 01 Sep 05:06:22 05:11:47 19° 11° (N) 05:17:10 435.175 FM
AO-Echo 01 Sep 05:07:18 05:09:05 12° 303° (WNW) 05:10:52 ?
Saudisat 1A 01 Sep 05:19:08 05:21:46 15° 31° (NNE) 05:24:23 436.775 MHz
ITAMSAT 1 01 Sep 05:26:12 05:28:00 12° 306° (NW) 05:29:48 435.822 SSB
JAS-2 01 Sep 05:39:08 05:41:14 12° 88° (E) 05:43:22 435.800 - 435.900 CW/SSB, 435.910 FM
TMSAT-1 01 Sep 05:40:49 05:44:49 22° 299° (WNW) 05:48:48 436.925 FM
Uosat F 01 Sep 05:56:28 06:01:26 64° 288° (WNW) 06:06:22 435.120 FM
RS-15 01 Sep 05:56:47 06:02:31 16° 96° (E) 06:08:12 29.354 - 29.394 USB, Beacon 29.352 USB
Hamsat 01 Sep 06:07:30 06:10:48 21° 92° (E) 06:14:04 145.90 MHz
SO-50 01 Sep 06:21:45 06:24:15 14° 333° (NNW) 06:26:48 436.795 FM
UOSAT-12 01 Sep 06:29:57 06:34:30 55° 311° (NW) 06:39:10 437.025 FM, 437.400 FM
AO-7 01 Sep 06:30:56 06:39:02 60° 296° (WNW) 06:47:06 29.400 - 29.500 MHz
STRAND 1 01 Sep 06:38:22 06:43:24 65° 72° (ENE) 06:48:28 ?
Saudisat 1A 01 Sep 06:57:44 07:02:09 70° 51° (NE) 07:06:33 436.775 MHz
KITSAT 1 01 Sep 07:02:27 07:09:53 38° 39° (NE) 07:17:16 435.175 FM
JAS-2 01 Sep 07:21:46 07:27:02 89° 285° (WNW) 07:32:41 435.800 - 435.900 CW/SSB, 435.910 FM
SO-67 01 Sep 07:34:36 07:37:27 23° 95° (E) 07:40:17 435.3500 MHz FM
Hamsat 01 Sep 07:42:50 07:46:56 41° 290° (WNW) 07:50:59 145.90 MHz
RS-15 01 Sep 08:01:43 08:12:37 68° 118° (ESE) 08:23:24 29.354 - 29.394 USB, Beacon 29.352 USB
UOSAT-12 01 Sep 08:13:06 08:15:42 15° 333° (NNW) 08:18:20 437.025 FM, 437.400 FM
STRAND 1 01 Sep 08:19:45 08:23:04 17° 270° (W) 08:26:24 ?
AO-7 01 Sep 08:25:25 08:30:12 17° 318° (NW) 08:34:58 29.400 - 29.500 MHz
HO-68 01 Sep 08:32:32 08:36:06 14° 86° (E) 08:39:39 435.675 MHz FM
Saudisat 1A 01 Sep 08:38:37 08:41:13 16° 250° (WSW) 08:43:48 436.775 MHz
KITSAT 1 01 Sep 08:57:51 09:05:52 69° 242° (WSW) 09:13:50 435.175 FM
SO-67 01 Sep 09:07:39 09:10:26 23° 292° (WNW) 09:13:12 435.3500 MHz FM
JAS-2 01 Sep 09:08:53 09:11:30 14° 303° (WNW) 09:14:10 435.800 - 435.900 CW/SSB, 435.910 FM
UKube-1 01 Sep 09:37:01 09:40:03 18° 92° (E) 09:43:03 145.840 MHz, 145.915 MHz
Oscar 11 01 Sep 09:41:56 09:44:18 14° 89° (E) 09:46:40 145.825 FM, Beacon 2401.500 USB
SO-50 01 Sep 09:47:55 09:49:50 12° 23° (NNE) 09:51:45 436.795 FM
FUNcube-1 01 Sep 10:12:12 10:14:19 13° 89° (E) 10:16:25 145.950 - 145.970 MHz USB
RS-15 01 Sep 10:15:13 10:25:38 46° 325° (NW) 10:36:06 29.354 - 29.394 USB, Beacon 29.352 USB
HO-68 01 Sep 10:17:47 10:24:59 76° 105° (ESE) 10:32:08 435.675 MHz FM
ISS 01 Sep 10:37:18 10:40:29 44° 144° (SE) 10:43:41 145.800 FM
KITSAT 1 01 Sep 10:55:57 10:59:46 14° 262° (W) 11:03:35 435.175 FM
UKube-1 01 Sep 11:12:19 11:16:30 47° 290° (WNW) 11:20:40 145.840 MHz, 145.915 MHz
Oscar 11 01 Sep 11:16:35 11:20:55 62° 287° (WNW) 11:25:12 145.825 FM, Beacon 2401.500 USB
SO-50 01 Sep 11:27:09 11:31:40 41° 45° (NE) 11:36:14 436.795 FM
UOSAT-12 01 Sep 11:38:30 11:40:27 12° 23° (NNE) 11:42:23 437.025 FM, 437.400 FM
FUNcube-1 01 Sep 11:46:39 11:51:11 74° 285° (WNW) 11:55:46 145.950 - 145.970 MHz USB
Oscar 16 01 Sep 11:49:46 11:51:03 11° 53° (NE) 11:52:19 437.025 USB, Beacon 2401.1428
HO-68 01 Sep 12:06:24 12:12:02 26° 305° (NW) 12:17:39 435.675 MHz FM
JAS-1B 01 Sep 12:09:35 12:15:18 19° 50° (NE) 12:20:36 435.800 - 435.900 CW/SSB
ISS 01 Sep 12:14:04 12:17:16 42° 343° (NNW) 12:20:28 145.800 FM
RS-15 01 Sep 12:32:28 12:41:33 29° 358° (N) 12:50:46 29.354 - 29.394 USB, Beacon 29.352 USB
Oscar 19 01 Sep 12:49:47 12:54:21 33° 65° (ENE) 12:58:57 437.125 CW, 437.150 USB
AO-Echo 01 Sep 13:04:27 13:08:10 22° 63° (ENE) 13:11:49 ?
SO-50 01 Sep 13:07:54 13:12:10 32° 244° (WSW) 13:16:27 436.795 FM
MaSat-1 01 Sep 13:15:16 13:20:11 64° 114° (ESE) 13:25:18 437.345 MHz
UOSAT-12 01 Sep 13:17:23 13:21:53 41° 45° (NE) 13:26:19 437.025 FM, 437.400 FM
Oscar 16 01 Sep 13:24:18 13:29:25 66° 72° (ENE) 13:34:35 437.025 USB, Beacon 2401.1428
ITAMSAT 1 01 Sep 13:26:11 13:30:43 32° 65° (ENE) 13:35:16 435.822 SSB
Uribyol 2 01 Sep 13:35:22 13:40:09 40° 67° (ENE) 13:44:57 436.500 FM
TMSAT-1 01 Sep 13:45:49 13:49:19 18° 59° (ENE) 13:52:50 436.925 FM
ISS 01 Sep 13:51:32 13:54:31 29° 3° (N) 13:57:30 145.800 FM
AO-7 01 Sep 13:52:05 13:56:46 17° 41° (NE) 14:01:26 29.400 - 29.500 MHz
JAS-1B 01 Sep 13:55:00 14:04:32 66° 69° (ENE) 14:12:54 435.800 - 435.900 CW/SSB
AO-27 01 Sep 13:55:03 14:00:07 57° 70° (ENE) 14:05:11 436.795 MHz FM
Oscar 19 01 Sep 14:28:53 14:33:38 36° 263° (W) 14:38:25 437.125 CW, 437.150 USB
Gurwin Techsat 1B 01 Sep 14:33:08 14:38:18 57° 71° (ENE) 14:43:31 435.225 FM
AO-Echo 01 Sep 14:41:45 14:46:38 52° 260° (W) 14:51:24 ?
RS-15 01 Sep 14:47:27 14:57:44 42° 32° (NNE) 15:08:16 29.354 - 29.394 USB, Beacon 29.352 USB
MaSat-1 01 Sep 14:53:32 14:57:39 24° 314° (NW) 15:01:50 437.345 MHz
UOSAT-12 01 Sep 14:57:46 15:01:56 31° 244° (WSW) 15:06:02 437.025 FM, 437.400 FM
ITAMSAT 1 01 Sep 15:05:22 15:10:08 37° 263° (W) 15:14:55 435.822 SSB
Oscar 16 01 Sep 15:05:52 15:09:15 18° 270° (W) 15:12:40 437.025 USB, Beacon 2401.1428
Uribyol 2 01 Sep 15:15:17 15:19:44 29° 265° (W) 15:24:12 436.500 FM
TMSAT-1 01 Sep 15:23:23 15:28:40 74° 257° (WSW) 15:33:59 436.925 FM
ISS 01 Sep 15:28:22 15:31:40 60° 23° (NNE) 15:34:58 145.800 FM
Uosat F 01 Sep 15:34:12 15:38:36 32° 65° (ENE) 15:43:01 435.120 FM
AO-27 01 Sep 15:36:12 15:39:59 20° 268° (W) 15:43:49 436.795 MHz FM
AO-7 01 Sep 15:39:46 15:47:52 58° 63° (ENE) 15:55:58 29.400 - 29.500 MHz
Sapphire 01 Sep 15:40:55 15:43:30 14° 103° (ESE) 15:46:06 437.095 MHz 1200 baud AX-25 AFSK
JAS-1B 01 Sep 15:46:43 15:55:20 36° 266° (W) 16:03:10 435.800 - 435.900 CW/SSB
PCSat 01 Sep 16:08:01 16:12:24 26° 109° (ESE) 16:16:48 145.825 MHz
Gurwin Techsat 1B 01 Sep 16:14:41 16:18:38 21° 269° (W) 16:22:38 435.225 FM
OPAL 01 Sep 16:59:55 17:04:30 30° 97° (E) 17:09:02 ?
RS-15 01 Sep 17:00:08 17:11:12 79° 238° (WSW) 17:22:41 29.354 - 29.394 USB, Beacon 29.352 USB
Hamsat 01 Sep 17:03:24 17:06:42 21° 65° (ENE) 17:10:00 145.90 MHz
ISS 01 Sep 17:05:24 17:08:13 25° 221° (SW) 17:11:01 145.800 FM
Uosat F 01 Sep 17:12:46 17:17:20 35° 263° (W) 17:21:55 435.120 FM
Sapphire 01 Sep 17:20:41 17:26:06 88° 121° (ESE) 17:31:34 437.095 MHz 1200 baud AX-25 AFSK
AO-7 01 Sep 17:33:31 17:41:00 36° 263° (W) 17:48:32 29.400 - 29.500 MHz
JAS-2 01 Sep 17:36:32 17:42:16 51° 70° (ENE) 17:47:29 435.800 - 435.900 CW/SSB, 435.910 FM
PCSat 01 Sep 17:50:10 17:55:28 54° 308° (NW) 18:00:49 145.825 MHz
SO-67 01 Sep 18:11:14 18:12:57 13° 64° (ENE) 18:14:39 435.3500 MHz FM
Hamsat 01 Sep 18:38:17 18:42:23 42° 262° (W) 18:46:33 145.90 MHz
OPAL 01 Sep 18:38:35 18:43:27 41° 295° (WNW) 18:48:18 ?
STRAND 1 01 Sep 18:47:31 18:50:59 18° 91° (E) 18:54:25 ?
HO-68 01 Sep 19:04:41 19:09:00 17° 49° (NE) 19:13:20 435.675 MHz FM
Sapphire 01 Sep 19:06:12 19:10:16 21° 323° (NW) 19:14:21 437.095 MHz 1200 baud AX-25 AFSK
RS-15 01 Sep 19:14:18 19:21:46 21° 260° (W) 19:29:28 29.354 - 29.394 USB, Beacon 29.352 USB
JAS-2 01 Sep 19:22:48 19:27:37 25° 266° (W) 19:32:05 435.800 - 435.900 CW/SSB, 435.910 FM
PCSat 01 Sep 19:37:10 19:40:09 15° 330° (NNW) 19:43:09 145.825 MHz
SO-67 01 Sep 19:42:18 19:45:38 45° 261° (W) 19:48:59 435.3500 MHz FM
STRAND 1 01 Sep 20:25:33 20:30:36 63° 288° (WNW) 20:35:38 ?
UKube-1 01 Sep 20:34:55 20:38:20 23° 64° (ENE) 20:41:45 145.840 MHz, 145.915 MHz
Oscar 11 01 Sep 20:39:34 20:42:19 17° 62° (ENE) 20:45:04 145.825 FM, Beacon 2401.500 USB
HO-68 01 Sep 20:48:27 20:55:32 72° 69° (ENE) 21:02:40 435.675 MHz FM
FUNcube-1 01 Sep 21:11:39 21:13:52 14° 60° (ENE) 21:16:07 145.950 - 145.970 MHz USB
MaSat-1 01 Sep 21:30:56 21:35:03 29° 49° (NE) 21:38:44 437.345 MHz
KITSAT 1 01 Sep 21:39:17 21:42:12 12° 97° (E) 21:45:07 435.175 FM
STRAND 1 01 Sep 22:08:22 22:08:48 10° 307° (NW) 22:09:14 ?
UKube-1 01 Sep 22:10:15 22:14:19 39° 262° (W) 22:18:25 145.840 MHz, 145.915 MHz
Oscar 11 01 Sep 22:13:47 22:18:04 58° 259° (W) 22:22:23 145.825 FM, Beacon 2401.500 USB
HO-68 01 Sep 22:38:20 22:43:53 24° 268° (W) 22:49:28 435.675 MHz FM
Saudisat 1A 01 Sep 22:45:28 22:49:52 75° 124° (SE) 22:54:17 436.775 MHz
FUNcube-1 01 Sep 22:45:33 22:49:43 67° 259° (WSW) 22:54:01 145.950 - 145.970 MHz USB
MaSat-1 01 Sep 23:07:58 23:12:07 35° 252° (WSW) 23:15:45 437.345 MHz
PCSat 01 Sep 23:10:36 23:12:30 12° 24° (NNE) 23:14:24 145.825 MHz
KITSAT 1 01 Sep 23:28:02 23:35:58 63° 117° (ESE) 23:43:55 435.175 FM
Sapphire 02 Sep 00:23:27 00:27:54 25° 41° (NE) 00:32:19 437.095 MHz 1200 baud AX-25 AFSK
Saudisat 1A 02 Sep 00:26:38 00:29:56 20° 324° (NW) 00:33:16 436.775 MHz
PCSat 02 Sep 00:52:27 00:57:32 38° 48° (NE) 01:02:35 145.825 MHz
KITSAT 1 02 Sep 01:24:16 01:31:48 40° 319° (NW) 01:39:22 435.175 FM
Oscar 16 02 Sep 01:34:28 01:38:11 20° 91° (E) 01:41:53 437.025 USB, Beacon 2401.1428
JAS-1B 02 Sep 01:43:27 01:44:36 11° 80° (E) 01:45:44 435.800 - 435.900 CW/SSB
Uribyol 2 02 Sep 01:47:57 01:49:26 11° 86° (E) 01:50:54 436.500 FM
Sapphire 02 Sep 02:06:26 02:11:51 70° 241° (WSW) 02:17:14 437.095 MHz 1200 baud AX-25 AFSK
AO-27 02 Sep 02:06:46 02:10:02 17° 90° (E) 02:13:17 436.795 MHz FM
PCSat 02 Sep 02:35:57 02:40:57 39° 247° (WSW) 02:45:56 145.825 MHz
Oscar 19 02 Sep 02:37:24 02:42:36 67° 102° (ESE) 02:47:45 437.125 CW, 437.150 USB
OPAL 02 Sep 02:42:16 02:44:07 12° 51° (NE) 02:45:58 ?
AO-Echo 02 Sep 02:46:25 02:50:50 39° 98° (E) 02:55:15 ?
Gurwin Techsat 1B 02 Sep 02:47:47 02:51:28 19° 90° (E) 02:55:08 435.225 FM
